Regional Weather Roundup
Issued by NWS Spokane, WA

Home | Current Version | Previous Version | Text Only | Print | Product List | Glossary On
Versions: 1 2 3 4 5 6 7 8 9 10 11 12 13 14 15 16 17 18 19 20 21 22 23 24 25 26 27 28 29 30 31 32 33 34 35 36 37 38 39 40 41 42 43 44 45 46 47 48 49 50
000
NZUS01 KOTX 250010
RWROTX
EASTERN WASHINGTON/NORTHERN IDAHO ROUNDUP
NATIONAL WEATHER SERVICE, SPOKANE WA
500 PM PDT THU APR 24 2014

Note: "fair" indicated few or no clouds below 12,000 feet with no
significant weather and/or obstructions to visibility.

...NORTHEAST WASHINGTON AND NORTHERN IDAHO PANHANDLE...

CITY           SKY/WX    TMP DP  RH WIND       PRES   REMARKS
SPOKANE INTL   PTSUNNY   57  36  45 SW21      29.76S
SPOKANE DOWNTO PTSUNNY   58  36  43 SW20G25   29.77S
COEUR D ALENE  CLOUDY    54  39  58 W12G22    29.78R
DEER PARK      PTSUNNY   56  40  55 SW13      29.76S
SANDPOINT      PTSUNNY   46  45  93 E6        29.79F

...SOUTHEAST WASHINGTON AND SOUTHERN IDAHO PANHANDLE...

CITY           SKY/WX    TMP DP  RH WIND       PRES   REMARKS
WALLA WALLA    PTSUNNY   59  42  53 S17       29.83S
PULLMAN/MOSCOW CLOUDY    54  40  59 SW15G22   29.84R
LEWISTON       CLOUDY    56  37  49 SW9       29.82S
LOWELL           N/A     46  42  86 CALM      29.94F

...COLUMBIA BASIN...

CITY           SKY/WX    TMP DP  RH WIND       PRES   REMARKS
EPHRATA        PTSUNNY   64  31  28 SW14G21   29.74R
MOSES LAKE     MOSUNNY   66  34  30 SW12G18   29.74F
TRI CITIES     MOSUNNY   68  32  26 SW22G32   29.79S
HERMISTON      PTSUNNY   65  37  35 W12G20    29.80F
PENDLETON      CLOUDY    57  44  62 W13       29.82S

...EAST SLOPES CASCADES...

CITY           SKY/WX    TMP DP  RH WIND       PRES   REMARKS
THE DALLES     MOSUNNY   57  41  55 NW23G37   29.86R
YAKIMA         PTSUNNY   62  33  33 NW20G26   29.78R
ELLENSBURG     PTSUNNY   56  35  45 NW23G31   29.77R
WENATCHEE      MOSUNNY   63  24  22 W13       29.74S
OMAK           PTSUNNY   59  36  42 S5        29.71S

...SOUTHERN BRITISH COLUMBIA...

CITY           SKY/WX    TMP DP  RH WIND       PRES   REMARKS
PENTICTON      PTSUNNY   54  43  66 N8        29.71R
CASTLEGAR      MOSUNNY   46  41  81 N10       29.78F
CRANBROOK      PTSUNNY   48  37  66 SE14G21   29.72S

...WESTERN MONTANA...

CITY           SKY/WX    TMP DP  RH WIND       PRES   REMARKS
MISSOULA       CLOUDY    52  37  56 SW8       29.84R

...NEIGHBORING CITIES...

CITY           SKY/WX    TMP DP  RH WIND       PRES   REMARKS
SEATTLE        PTSUNNY   53  40  61 SW14G29   29.87S
CALGARY        PTSUNNY   52  23  32 E14G21    29.63S



USA.gov is the U.S. government's official web portal to all federal, state and local government web resources and services.